Aeroporto :
LOGIN :

Iscrizione | Disclaimer

   EN    FR    IT 

 










Sommario :    VFR   VFR Marginale   IFR   IFR Intensivo   IFR Molto Intensivo
Visibilità : 
Base nubi : 
>= 8 km
>= 3000ft
5 / 8 km
1000 / 3000 ft
1500m / 5 km
500 / 1000 ft
800 / 1500m
200 / 500 ft
< 800m
< 200 ft
Simboli :   Temporali  Nebbia  Neve Forte  Precipitazioni Forti  Vento > 20 kt
SIGMETs :   Varie  Temporali  Ghiacco  Turbolenza  Onda orograficha  Ceneri Vulcaniche






- Altitudine del aeroporto : 453 ft
- Codice IATA : SBK


LFRT - St Brieuc Armor

ULTIMO METAR :
  • 200430Z AUTO 28007KT 9999 BKN025 BKN031 BKN049 12/11 Q1022

METARs OBSOLETI :
  • 200400Z AUTO 27007KT 9999 SCT023 SCT028 BKN035 11/11 Q1021
  • 200330Z AUTO 27006KT 9999 FEW028 10/10 Q1021
  • 200300Z AUTO 27006KT 9999 FEW023 11/10 Q1021
  • 200230Z AUTO 27006KT CAVOK 11/10 Q1021
  • 200200Z AUTO 27007KT CAVOK 11/10 Q1021

Previsioni scadute.



MetMap, La meteo Aeronautica in un colpo d'occhio ! - Copyright ORBIFLY Dicembre 2007 - Disclaimer

ORBIFLY MET'MAP TEAM :

Programmazione e sviluppo : Alexandra Zaïnal
Concezione : Baudouin d'Aumeries
Aiuto per la programmazione : Marc-Olivier Méhu
Supporto tecnico e logistico : Manuel Goepfert
Aiuto per la traduzione : Arnaldo La Scala

Contatto : metmap@orbifly.com




FONTI E CREDITI :

   NOAA